Albuquerque, NM

8:29 AM MDT on May 20, 2018 (GMT -0600)
Albuquerque International Sunport

Weather History for KABQ - January, 2013

Change the Weather History Date:

Monday, January 21, 2013

  Actual Average Record
Temperature  
Mean Temperature 37 °F 37 °F  
Max Temperature 54 °F 47 °F 68 °F (1971)
Min Temperature 20 °F 26 °F -2 °F (1918)
Degree Days  
Heating Degree Days 28 28  
Month to date heating degree days 744 610  
Since 1 July heating degree days 2248 2367  
Cooling Degree Days 0 0  
Month to date cooling degree days 0 0  
Year to date cooling degree days 0 0  
Moisture  
Dew Point 11 °F    
Average Humidity 38    
Maximum Humidity 57    
Minimum Humidity 18    
Precipitation  
Precipitation 0.00 in 0.02 in 0.22 in (1916)
Month to date precipitation T 0.26  
Year to date precipitation T 0.26  
Snow  
Snow 0.00 in - - ()
Month to date snowfall 0.2  
Since 1 July snowfall 0.7  
Snow Depth 0.00 in    
Sea Level Pressure  
Sea Level Pressure 30.27 in    
Wind  
Wind Speed 7 mph (North)    
Max Wind Speed 15 mph    
Max Gust Speed 18 mph    
Visibility 10 miles    
Events      
T = Trace of Precipitation, MM = Missing Value Source: NWS Daily Summary

Daily Weather History Graph

Daily Weather History Graph

Search for Another Location

Airport or City:

Astronomy

Jan. 21, 2013 Rise Set
Actual Time 7:11 AM MST 5:24 PM MST
Civil Twilight 6:44 AM MST 5:51 PM MST
Nautical Twilight 6:13 AM MST 6:22 PM MST
Astronomical Twilight 5:43 AM MST 6:52 PM MST
Moon 1:06 PM MST (1/21) 2:42 AM MST (1/21)
Length of Visible Light 11h 06m
Length of Day
10h 12m
Waxing Gibbous, 75% of the Moon is Illuminated
Jan 21
Waxing Gibbous
Jan 26
Full
Feb 3
Last Quarter
Feb 10
New
Feb 17
First Quarter

Hourly Weather History & Observations

Time (MST) Temp. Windchill Dew Point Humidity Pressure Visibility Wind Dir Wind Speed Gust Speed Precip Events Conditions
12:52 AM 34.0 °F 26.0 °F 12.9 °F 42% 30.25 in 10.0 mi North 10.4 mph - N/A   Clear
1:52 AM 30.0 °F 21.7 °F 10.9 °F 45% 30.27 in 10.0 mi North 9.2 mph - N/A   Clear
2:52 AM 30.9 °F 23.5 °F 10.9 °F 43% 30.25 in 10.0 mi North 8.1 mph - N/A   Clear
3:52 AM 28.0 °F 19.3 °F 10.9 °F 49% 30.27 in 10.0 mi North 9.2 mph - N/A   Clear
4:52 AM 23.0 °F - 9.0 °F 55% 30.29 in 10.0 mi Calm Calm - N/A   Clear
5:52 AM 19.9 °F 14.9 °F 6.1 °F 55% 30.32 in 10.0 mi NE 3.5 mph - N/A   Clear
6:52 AM 21.9 °F 15.7 °F 9.0 °F 58% 30.32 in 10.0 mi NNE 4.6 mph - N/A   Partly Cloudy
7:52 AM 26.1 °F 15.6 °F 10.0 °F 51% 30.33 in 10.0 mi North 11.5 mph - N/A   Partly Cloudy
8:52 AM 28.9 °F 21.9 °F 10.0 °F 45% 30.34 in 10.0 mi North 6.9 mph - N/A   Partly Cloudy
9:52 AM 30.9 °F 23.5 °F 10.0 °F 42% 30.37 in 10.0 mi NNW 8.1 mph - N/A   Partly Cloudy
10:52 AM 37.9 °F 34.4 °F 10.9 °F 33% 30.34 in 10.0 mi North 4.6 mph - N/A   Partly Cloudy
11:52 AM 44.1 °F 40.1 °F 10.9 °F 26% 30.29 in 10.0 mi Variable 6.9 mph - N/A   Partly Cloudy
12:52 PM 46.9 °F - 10.9 °F 23% 30.25 in 10.0 mi NW 5.8 mph - N/A   Clear
1:52 PM 50.0 °F - 10.9 °F 21% 30.22 in 10.0 mi NNE 4.6 mph - N/A   Clear
2:52 PM 51.1 °F - 10.0 °F 19% 30.20 in 10.0 mi NW 5.8 mph - N/A   Clear
3:52 PM 53.1 °F - 10.9 °F 19% 30.19 in 10.0 mi Calm Calm - N/A   Clear
4:52 PM 52.0 °F - 10.0 °F 19% 30.20 in 10.0 mi Calm Calm - N/A   Clear
5:52 PM 46.9 °F - 10.0 °F 22% 30.24 in 10.0 mi North 5.8 mph - N/A   Partly Cloudy
6:52 PM 46.0 °F 41.9 °F 9.0 °F 22% 30.26 in 10.0 mi NNW 8.1 mph - N/A   Clear
7:52 PM 43.0 °F 38.8 °F 10.0 °F 26% 30.26 in 10.0 mi North 6.9 mph - N/A   Clear
8:52 PM 42.1 °F 37.7 °F 15.1 °F 34% 30.27 in 10.0 mi NNW 6.9 mph - N/A   Clear
9:52 PM 39.9 °F 33.9 °F 16.0 °F 38% 30.28 in 10.0 mi NNW 9.2 mph - N/A   Clear
10:52 PM 37.0 °F 30.4 °F 17.1 °F 44% 30.28 in 10.0 mi NNE 9.2 mph - N/A   Clear
11:52 PM 36.0 °F 28.5 °F 16.0 °F 44% 30.26 in 10.0 mi NNE 10.4 mph - N/A   Clear